PROBA-1 1 26958U 01049B 25349.94945281 .00003482 00000+0 23211-3 0 9997 2 26958 97.9588 347.2193 0056708 23.5319 336.8482 15.06473927316026 CUTE-1 (CO-55) 1 27844U 03031E 25349.96226894 .00000370 00000+0 17937-3 0 9990 2 27844 98.6763 355.8237 0009604 4.2888 355.8371 14.24182015165594 CUBESAT XI-IV (CO-57) 1 27848U 03031J 25349.29774373 .00000342 00000+0 16942-3 0 9994 2 27848 98.6792 355.0277 0009873 23.7561 336.4071 14.23489145165212 APRIZESAT 4 1 35684U 09041D 25349.75446691 .00000996 00000+0 12624-3 0 9996 2 35684 98.1641 56.2860 0043260 194.7680 165.2273 14.83499657884163 APRIZESAT 3 1 35686U 09041F 25349.95137567 .00001904 00000+0 17185-3 0 9996 2 35686 98.1791 129.7981 0061519 313.0057 46.6017 14.95435383888983 PROBA-2 1 36037U 09059B 25349.94531294 .00000323 00000+0 86036-4 0 9996 2 36037 98.2372 170.8795 0014128 123.9387 236.3156 14.54714078854888 APRIZESAT 5 1 37792U 11044E 25349.75888817 .00001183 00000+0 15837-3 0 9992 2 37792 98.2362 272.7829 0051518 232.5418 127.1101 14.80581047771648 APRIZESAT 6 1 37793U 11044F 25349.72134084 .00001033 00000+0 15405-3 0 9995 2 37793 98.2459 251.4095 0042536 314.2470 65.3684 14.76542515770078 PROBA-V 1 39159U 13021A 25349.95422085 .00000094 00000+0 59097-4 0 9998 2 39159 98.3391 332.8174 0003394 323.1189 36.9756 14.23548457655045 APRIZESAT 7 1 39416U 13066A 25349.84293629 .00000953 00000+0 10107-3 0 9993 2 39416 97.7471 301.0497 0037872 98.6070 261.9442 14.90912928653907 APRIZESAT 8 1 39425U 13066K 25349.82541556 .00001123 00000+0 12875-3 0 9990 2 39425 97.8007 295.1692 0046622 167.4171 192.8221 14.87120196652419 BUGSAT-1 (TITA) 1 40014U 14033E 25349.96154459 .00004110 00000+0 23228-3 0 9991 2 40014 98.0566 67.0406 0030508 86.0455 274.4261 15.13331821628103 SAUDISAT 4 1 40016U 14033G 25349.89009524 .00000797 00000+0 11272-3 0 9990 2 40016 97.7299 137.7127 0044036 311.2198 48.5221 14.79175337618976 APRIZESAT 9 1 40018U 14033J 25349.93067003 .00000694 00000+0 10968-3 0 9990 2 40018 97.8793 122.9601 0067812 69.9886 290.8607 14.73892151616566 APRIZESAT 10 1 40019U 14033K 25349.91385488 .00000809 00000+0 13481-3 0 9990 2 40019 97.9410 116.2925 0080066 138.4068 222.3267 14.70602618615317 TECHDEMOSAT-1 (TDS-1) 1 40076U 14037H 25349.92680650 .00007483 00000+0 47064-3 0 9996 2 40076 98.3666 319.6674 0007332 151.4526 208.7104 15.09536019620540 TECHNOSAT 1 42829U 17042E 25349.92316414 .00003042 00000+0 22695-3 0 9997 2 42829 97.4046 149.9918 0018219 3.6825 356.4532 15.03441211459157 FLYING LAPTOP 1 42831U 17042G 25350.00421785 .00003011 00000+0 24658-3 0 9996 2 42831 97.4236 148.4749 0014852 38.8070 321.4218 14.99935100458980 HAWK-A 1 43765U 18099H 25349.94215145 .00006573 00000+0 28883-3 0 9998 2 43765 97.4214 39.6473 0036456 207.3255 152.6064 15.21639861385208 HAWK-B 1 43794U 18099AN 25349.09994496 .00005663 00000+0 26180-3 0 9996 2 43794 97.4263 38.5853 0032915 226.9369 132.9110 15.20080444385044 HAWK-C 1 43799U 18099AT 25349.71176834 .00006618 00000+0 26472-3 0 9993 2 43799 97.4195 39.5010 0042957 211.8730 147.9907 15.24568180385920 SALSAT 1 46495U 20068K 25349.94064692 .00006472 00000+0 25165-3 0 9997 2 46495 97.8781 337.3859 0009148 216.2619 143.7999 15.26381318287374 HAWK-2C 1 47502U 21006CT 25349.70716652 .00005296 00000+0 17522-3 0 9995 2 47502 97.2564 32.7490 0008584 130.7350 229.4639 15.31721067271381 HAWK-2A 1 47505U 21006CW 25349.57961072 .00007355 00000+0 24236-3 0 9999 2 47505 97.2612 33.1941 0008013 133.3421 226.8490 15.31723440271360 HAWK-2B 1 47508U 21006CZ 25349.83816910 .00005413 00000+0 17902-3 0 9996 2 47508 97.2481 32.0898 0008802 131.1371 229.0632 15.31721993271401 HAWK-3B 1 48931U 21059BE 25349.74724747 .00019553 00000+0 28998-3 0 9998 2 48931 97.6694 166.1385 0005206 286.8173 73.2509 15.55266683249217 HAWK-3C 1 48948U 21059BX 25349.48965049 .00020962 00000+0 31078-3 0 9998 2 48948 97.6859 171.1782 0005808 290.0704 69.9924 15.55256711249179 HAWK-3A 1 48957U 21059CG 25349.93986404 .00020580 00000+0 30497-3 0 9996 2 48957 97.6785 169.0311 0005355 285.9357 74.1306 15.55277349249245 HAWK-5C 1 52754U 22057Y 25349.94538390 .00014870 00000+0 33082-3 0 9991 2 52754 97.6369 134.1502 0005924 22.1986 337.9517 15.43736115198008 HAWK-5B 1 52756U 22057AA 25349.94521219 .00014482 00000+0 32227-3 0 9994 2 52756 97.6352 132.5065 0006013 18.0742 342.0717 15.43735152198001 HAWK-5A 1 52757U 22057AB 25349.94495878 .00013876 00000+0 30901-3 0 9999 2 52757 97.6359 133.3297 0006176 20.2028 339.9462 15.43722523198007 HAWK-6B 1 55324U 23011A 25349.38202035 .00004429 00000+0 20592-3 0 9991 2 55324 40.5155 342.3682 0003273 214.5196 145.5401 15.20682468159830 HAWK-6C 1 55326U 23011C 25349.38140976 .00004644 00000+0 21547-3 0 9998 2 55326 40.4845 339.4651 0002821 205.8175 154.2493 15.20680652159840 HAWK-6A 1 55327U 23011D 25349.38142674 .00004507 00000+0 20939-3 0 9998 2 55327 40.5003 340.9570 0002613 211.1917 148.8737 15.20680611159843 HAWK-7A 1 56191U 23054P 25349.27166310 .00005148 00000+0 18387-3 0 9992 2 56191 97.2904 235.9960 0008891 0.7487 359.3765 15.29244932148957 HAWK-7B 1 56193U 23054R 25349.66415944 .00002361 00000+0 85771-4 0 9993 2 56193 97.2957 234.5754 0008884 8.5792 351.5598 15.29238434149016 HAWK-7C 1 56200U 23054Y 25349.66392100 .00004489 00000+0 16080-3 0 9999 2 56200 97.2929 235.3979 0008220 359.5134 0.6097 15.29224315149014